Regional Weather Roundup
Issued by NWS New Orleans/Baton Rouge, LA

Home | Current Version | Previous Version | Text Only | Print | Product List | Glossary On
Versions: 1 2 3 4 5 6 7 8 9 10 11 12 13 14 15 16 17 18 19 20 21 22 23 24 25 26 27 28 29 30 31 32 33 34 35 36 37 38 39 40 41 42 43 44 45 46 47 48 49 50
370
ASUS44 KLIX 011510
RWRLIX
NEW ORLEANS REGIONAL WEATHER ROUNDUP
NATIONAL WEATHER SERVICE NEW ORLEANS LA
1000 AM CDT MON SEP 01 2014

NOTE: "FAIR" INDICATES FEW OR NO CLOUDS BELOW 12,000 FEET WITH NO
      SIGNIFICANT WEATHER AND/OR OBSTRUCTIONS TO VISIBILITY.
      SKY/WX - SKY CONDITION AND SIGNIFICANT WEATHER.
      TMP - AIR TEMPERATURE.     DP    - DEWPOINT TEMPERATURE.
      RH  - RELATIVE HUMIDITY.   PRES  - PRESSURE.
      HI  - HEAT INDEX.          WCI   - WIND CHILL INDEX.

*  THESE STATIONS ARE NOT NWS OR FAA STATIONS AND ARE NOT UNDER
   NWS QUALITY CONTROL.

LAZ038-040-048-061>063-065>067-069-011600-
SOUTHEAST LOUISIANA

CITY           SKY/WX    TMP DP  RH WIND       PRES   REMARKS
N.O. AUDUBON     N/A     81  74  77 MISG        N/A
N.O. INTL ARPT PTSUNNY   81  75  82 SE5       30.06R
N.O. LAKEFRONT MOSUNNY   87  75  67 SE13      30.06R HX  96
N.O. DOWNTOWN* PTSUNNY   86  73  66 SE7       30.07R
SLIDELL        MOSUNNY   86  75  69 S14       30.07R HX  95
BATON ROUGE    PTSUNNY   86  76  71 SE10      30.04S HX  96
BOOTHVILLE     MOSUNNY   83  77  82 S13       30.07R
BELLE CHASSE   MOSUNNY   87  74  64 SE10      30.05S HX  95
BOGALUSA*        N/A     88  75  67 S8        30.09R HX  97
GALLIANO*      NOT AVBL
NEW ROADS*       N/A     85  77  77 SE10      30.04R HX  95
GONZALES*      PTSUNNY   86  80  82 SE7       30.03S HX 100
HAMMOND*       MOSUNNY   88  75  66 SE12      30.08R HX  97
HOUMA*         MOSUNNY   75  73  94 E7        30.05R
PORT FOURCHON* SUNNY     84  77  79 SE16      30.06S

$$

MSZ070-080>082-011600-
SOUTHERN MISSISSIPPI

CITY           SKY/WX    TMP DP  RH WIND       PRES   REMARKS
MCCOMB         PTSUNNY   84  76  76 SE12      30.08S
GULFPORT       MOSUNNY   87  76  69 SE14      30.07R HX  97
BILOXI         MOSUNNY   88  77  70 SE7       30.08R HX  99
PASCAGOULA     MOSUNNY   88  75  65 SE13      30.09R HX  97
STENNIS ARPT*  MOSUNNY  N/A N/A N/A SE12      30.08R

$$

COASTAL OBSERVATIONS
LAKE AND NEARSHORE STATIONS

STATION/POSITION TIME  TEMP    WIND        PRES    WAVE
                       AIR SEA DIR/SP/G            HT/PER
                 (UTC) (F)     (DEG/KT/KT) (MB)    (FT/S)
PASCAGOULA       1500   87     140/ 11/ 13 1018.5
WAVELAND YACHT   1500   82     160/ 12/ 18 1017.8
GRAND ISLE       1500   83 84  150/  9/ 12 1018.5
SOUTHWEST PASS   1500   81 90  140/  6/ 12 1018.3
NEW CANAL        1500   82 81  210/  3/  4 1018.4
SHELL BEACH      1500   86 80  130/ 15/ 17 1017.9

OFFSHORE STATIONS

STATION/POSITION TIME  TEMP    WIND        PRES    WAVE
                       AIR SEA DIR/SP/G            HT/PER
                 (UTC) (F)     (DEG/KT/KT) (MB)    (FT/S)
64 S DAUPHIN ISL 1500   85     130/ 14     1018.7

$$




USA.gov is the U.S. government's official web portal to all federal, state and local government web resources and services.